Temperature
13 14 14 14 14 14 14 14 14 14 14 14 14 14 14 14 14 14 14 14 14 14 14 14 14 14 14 14 14 14 14 14 14 14 14 14 14 14 14 14 14 14 14
14 14 14 14 14 14 14 14 14 14 14 14 14 14 14 14 14 14 14 14 14 14 14 14 14 14 14 14 14 14 14 14 14 14 14 14 14 14 14 14 14 13 14
14 14 13 13 13 13 13 14 14 14 14 14 14 14 14 14 14 14 14 14 14 14 14 14 13 14 14 14 14 14 14 14 14 14 14 14 13 13 13 13 13 13 13
14 14 13 13 13 13 13 13 14 14 14 14 14 14 14 13 13 13 13 13 13 13 14 13 13 13 14 14 14 13 13 13 14 14 14 13 13 13 13 13 13 13 13
14 13 13 13 13 13 13 13 13 13 13 14 14 13 13 13 13 13 13 13 13 13 13 13 13 13 13 13 13 13 13 13 13 13 13 13 13 13 13 13 13 13 13
13 13 13 13 13 13 13 13 13 13 13 13 13 13 13 13 13 13 13 13 13 13 13 13 13 13 13 13 13 13 13 13 13 13 13 13 13 13 13 13 13 13 13
13 13 13 13 13 13 13 13 13 13 13 13 13 13 13 13 13 13 13 13 13 13 13 13 13 13 13 13 13 13 13 13 13 13 13 13 13 12 12 12 12 13 13
13 13 13 12 13 13 13 13 13 12 12 12 12 13 13 13 13 13 13 13 13 13 13 13 13 13 13 13 12 12 12 12 12 13 13 12 12 12 12 12 12 12 12
13 12 12 12 12 12 12 12 12 12 12 12 12 12 12 12 12 12 12 12 12 12 12 12 12 12 12 12 12 12 12 12 12 12 12 12 12 12 12 12 12 12 12
12 12 12 12 12 12 12 12 12 12 12 12 12 12 12 12 12 12 12 12 12 12 12 12 12 12 12 12 12 12 12 12 12 12 12 12 11 11 11 11 11 11 11
12 12 12 12 11 11 11 11 11 11 11 11 11 11 11 12 12 12 12 12 12 12 11 11 11 12 12 12 12 12 11 11 11 11 11 11 11 11 11 11 11 11 11
12 11 11 11 11 11 11 11 11 11 11 11 11 11 11 11 11 11 11 11 11 11 11 11 11 11 11 11 11 11 11 11 11 11 11 11 11 11 11 11 10 10 10
11 11 11 11 11 11 11 11 11 10 10 10 10 10 10 10 11 11 11 11 11 11 11 11 11 11 11 11 11 11 11 11 11 10 11 10 10 10 10 10 10 10 10
11 11 11 11 10 10 10 10 10 10 10 10 10 10 10 10 10 10 10 10 10 10 10 10 10 10 10 10 10 10 10 10 10 10 10 10 10 10 9 9 9 9 10
11 11 11 10 10 10 10 10 10 10 10 10 10 9 9 10 10 10 10 10 10 10 10 10 10 10 10 10 10 10 10 10 10 10 10 10 9 9 9 8 9 9 9
11 11 10 10 10 10 10 10 9 9 9 9 9 9 9 9 9 9 9 9 10 10 9 9 9 9 9 9 9 9 9 9 9 9 9 9 9 9 9 8 8 8 8
10 10 10 10 9 9 9 9 9 9 9 9 9 9 9 9 9 9 9 9 9 9 9 9 9 9 9 9 9 9 9 9 9 9 9 9 9 9 9 8 8 8 8
10 10 10 9 9 9 9 8 8 9 8 8 8 8 8 8 8 8 8 9 9 8 8 8 8 8 8 8 8 8 8 8 8 8 8 8 8 8 8 8 8 8 8
9 9 9 9 9 8 8 8 8 8 8 8 8 8 8 8 8 8 8 8 8 8 8 8 8 8 8 8 8 8 8 8 8 8 8 8 8 8 8 8 8 8 8
9 9 8 8 8 8 8 7 7 8 8 8 8 8 8 8 8 8 8 8 8 8 8 7 7 7 7 7 7 7 7 7 7 7 7 7 7 7 7 8 8 8 8
8 8 8 8 8 7 7 7 7 7 7 7 7 7 7 7 7 7 7 7 7 7 7 7 7 7 7 7 7 6 6 6 6 7 7 7 7 7 7 7 7 7 7
8 8 8 7 7 7 7 7 7 7 7 7 7 7 7 7 7 7 7 6 6 6 6 6 6 6 6 6 6 5 5 6 6 6 6 6 6 6 6 7 7 7 7
8 7 7 7 7 7 7 6 6 6 6 6 6 6 6 6 6 6 6 6 6 6 6 6 6 6 6 6 5 5 5 5 5 5 6 6 6 6 6 6 6 6 6
7 7 7 7 7 7 6 6 6 6 6 6 6 6 6 6 6 6 5 5 5 5 5 5 5 5 5 5 5 5 5 4 4 4 5 5 5 5 5 5 5 6 6
7 7 6 6 6 6 6 6 5 5 6 5 5 5 5 5 5 5 5 5 5 5 5 5 5 4 4 4 4 4 4 4 4 4 4 4 5 5 5 5 5 5 5
7 6 6 6 6 6 5 5 5 5 5 5 5 5 4 4 4 4 4 4 4 4 4 4 4 4 4 4 4 4 4 3 3 3 3 3 3 4 4 4 4 5 5
Wind_Speed
4 6 11 11 10 9 10 10 10 9 9 9 9 9 10 10 10 10 10 10 9 8 8 9 9 9 9 9 9 9 9 8 8 8 8 8 9 9 9 9 8 8 8
7 8 12 11 10 10 10 9 9 9 9 9 9 9 9 9 9 9 9 9 9 8 7 7 8 8 8 8 8 8 8 8 7 7 7 7 7 8 8 7 7 6 7
9 10 11 12 11 10 9 9 8 8 8 8 8 8 8 8 8 8 8 8 8 8 7 6 7 7 7 7 7 7 7 8 7 7 7 6 5 6 6 6 5 6 6
11 10 10 11 10 10 9 9 8 7 7 7 7 7 7 7 7 7 7 7 7 7 7 6 6 6 7 7 6 6 6 7 7 7 6 5 3 4 5 5 5 5 5
10 10 10 11 10 9 9 8 8 7 7 7 6 6 6 6 6 6 6 6 6 6 6 5 5 5 5 5 5 5 6 6 6 7 6 5 4 4 4 4 4 4 4
9 9 10 11 9 9 8 8 7 6 6 6 6 6 6 5 5 5 5 5 5 5 5 4 4 4 4 4 4 4 5 6 7 6 5 4 3 3 3 4 4 4 3
8 8 9 10 9 8 8 7 6 5 6 6 5 5 4 4 4 4 4 4 4 4 4 4 3 3 3 4 4 4 5 5 6 5 4 4 2 3 3 3 3 4 3
8 8 8 9 8 8 7 6 5 5 5 4 4 4 4 3 3 3 3 3 3 3 4 4 3 2 2 3 3 4 5 5 4 4 3 3 2 2 2 3 2 3 3
8 7 6 7 7 7 6 5 5 5 4 4 3 3 3 3 3 2 2 2 3 3 3 3 3 2 2 3 3 3 4 4 4 3 3 2 1 1 1 2 2 2 2
6 5 5 5 5 4 5 5 4 4 3 3 3 2 3 3 2 2 2 2 2 3 3 3 2 2 3 3 3 3 4 4 4 3 2 2 2 1 1 2 2 2 2
4 3 4 3 3 3 4 4 4 3 2 2 2 2 2 2 2 1 1 1 2 3 3 4 3 3 3 3 3 3 4 3 3 3 2 2 2 2 2 2 3 3 3
4 3 3 3 3 3 3 3 3 2 1 1 1 1 1 1 1 1 1 1 2 3 3 4 4 4 4 3 3 3 3 3 3 3 3 3 3 3 3 3 4 4 4
5 4 3 4 3 3 2 2 2 2 1 1 1 1 1 1 1 1 2 2 2 2 3 4 4 4 3 2 2 2 2 2 2 3 3 4 4 4 4 4 4 5 5
4 4 4 3 3 3 2 1 2 2 2 1 1 1 1 1 1 0 0 1 1 1 2 2 2 3 3 3 2 1 1 1 1 3 3 4 4 4 4 4 5 5 6
5 5 4 4 4 3 2 2 2 2 3 3 2 2 2 1 1 1 1 1 1 1 1 2 2 3 3 3 2 1 1 1 2 2 3 4 4 4 4 4 5 6 6
6 6 5 4 4 3 2 2 2 2 2 2 2 2 3 2 2 1 1 1 1 1 1 1 2 2 2 2 2 2 2 2 2 2 2 3 3 3 4 5 6 7 7
5 5 4 4 4 3 3 2 2 2 2 2 2 2 2 2 2 2 1 1 1 2 1 1 2 2 2 2 2 2 2 2 2 1 2 2 2 3 4 5 6 7 8
4 3 3 3 3 3 3 2 2 2 2 1 2 2 2 2 2 2 1 2 2 1 0 1 1 1 2 2 2 2 2 1 1 1 1 1 1 1 3 5 6 8 8
4 4 3 2 3 3 2 2 2 1 2 1 1 2 2 2 2 2 1 2 1 1 1 1 1 1 2 2 2 2 2 2 2 1 1 1 1 1 2 4 6 7 8
4 4 3 2 2 2 2 1 1 0 0 1 1 2 2 1 1 2 1 1 1 1 1 1 1 1 1 2 2 2 2 2 2 2 2 1 1 1 2 2 3 5 6
3 4 3 3 2 2 2 1 1 1 1 1 2 2 2 2 1 1 1 1 1 1 2 2 2 1 1 1 0 2 3 2 2 2 2 1 1 1 2 2 2 3 4
5 4 4 4 3 3 3 3 2 1 1 1 2 2 2 2 2 1 1 1 1 1 1 2 1 1 1 0 1 0 2 3 2 2 2 1 2 1 2 2 2 2 3
5 5 4 4 4 3 3 1 1 1 1 0 1 1 2 2 2 2 2 2 1 1 2 3 2 2 2 1 1 2 2 3 3 2 2 1 1 1 2 2 2 3 3
6 5 5 4 4 3 3 3 3 2 2 2 2 2 2 2 3 2 2 2 2 2 2 3 2 2 2 2 1 1 2 2 2 2 3 2 2 2 3 3 3 4 3
5 5 4 4 3 3 3 4 4 3 2 1 1 2 2 2 2 2 2 2 2 2 3 3 3 3 3 3 2 1 1 1 2 2 3 3 3 3 3 3 3 3 3
3 3 4 4 3 3 3 4 4 4 3 2 2 2 2 2 2 2 2 2 3 2 3 3 3 3 3 3 3 2 2 2 2 2 3 4 4 4 4 3 3 3 3
Wind_Direction
168 163 147 137 127 119 112 107 102 96 90 85 84 81 76 74 72 68 66 65 68 73 76 75 70 70 69 66 63 62 62 60 60 61 64 67 70 70 70 74 73 71 71
151 149 144 138 129 122 115 108 103 98 92 87 85 83 78 75 73 71 66 65 67 70 73 73 74 71 70 67 64 65 60 56 54 56 57 58 65 70 69 71 73 76 69
134 138 141 139 132 125 118 111 105 100 94 90 86 83 80 79 75 70 66 64 66 64 69 73 76 74 71 66 66 65 61 57 52 52 50 45 54 70 69 62 65 72 68
130 133 138 139 134 127 120 114 109 103 96 94 90 85 82 78 76 72 68 63 63 63 64 69 73 76 71 66 63 62 58 54 53 51 43 36 41 68 67 62 62 73 67
119 127 137 139 136 129 122 115 110 104 98 94 90 86 81 78 75 71 69 64 59 58 59 63 69 73 70 64 58 53 50 50 52 46 39 38 40 65 66 61 58 67 68
118 122 136 139 137 131 125 120 114 106 101 97 91 87 81 80 74 68 65 63 58 53 52 60 63 63 61 53 46 44 40 44 44 47 43 36 36 58 60 53 52 60 61
125 123 133 139 136 131 127 123 118 112 106 99 94 87 81 78 73 69 66 64 60 50 42 47 58 55 53 42 36 37 36 37 41 42 39 23 22 47 45 49 50 43 43
128 123 132 139 138 134 128 124 119 115 109 101 95 89 82 78 75 72 70 66 60 51 44 43 45 41 42 31 28 34 33 30 34 31 29 15 7 36 38 34 35 23 18
123 119 118 130 137 138 135 130 124 115 110 104 97 87 76 82 80 77 70 66 55 45 36 25 21 15 21 21 22 27 25 24 34 24 2 347 342 18 26 15 13 3 359
119 123 124 119 124 135 140 141 132 119 109 102 95 85 76 75 78 72 65 61 56 36 21 12 5 5 5 11 15 15 16 19 19 2 346 320 310 314 340 344 331 321 326
128 131 136 129 121 131 146 151 144 136 122 96 86 94 77 51 47 47 52 60 42 21 13 8 4 355 353 360 1 6 14 13 3 350 329 301 293 286 296 304 304 301 299
159 160 150 148 144 137 146 144 136 134 118 94 83 91 84 76 55 34 35 32 18 6 4 360 358 355 352 360 2 8 13 1 356 337 316 302 291 280 284 287 287 288 293
169 162 165 161 154 145 140 147 141 145 146 138 137 142 107 79 55 27 17 0 358 1 6 352 355 355 352 350 350 354 358 354 342 325 314 309 290 280 276 280 285 284 289
161 166 173 163 156 159 149 161 162 158 167 178 200 197 151 95 56 56 46 333 352 356 358 351 343 335 333 326 313 319 323 317 305 310 305 304 294 290 289 284 287 284 288
174 178 178 171 169 165 157 172 162 181 188 194 194 202 185 165 203 221 233 253 291 314 328 328 330 321 320 322 312 307 306 304 291 298 302 299 293 294 296 296 295 296 295
186 186 183 175 171 161 164 173 175 192 204 203 202 211 210 198 201 212 237 262 278 270 275 280 292 299 299 306 298 293 290 290 287 283 295 304 297 293 297 298 298 294 292
190 187 185 180 162 162 169 177 168 178 186 194 206 212 205 198 197 199 213 245 271 264 268 295 307 314 303 300 291 289 294 290 290 283 282 295 305 297 298 302 299 298 297
167 172 185 182 169 174 179 185 184 180 180 207 208 200 198 197 189 180 208 248 261 258 263 250 275 298 299 290 284 285 291 291 291 273 269 272 287 303 304 302 303 298 300
168 169 180 183 182 191 185 185 188 185 184 206 222 216 209 197 184 175 217 254 255 264 265 265 304 269 281 286 274 282 286 280 278 276 256 251 255 280 307 305 302 299 300
171 169 177 178 184 186 173 149 132 124 222 219 221 225 219 208 186 177 216 250 247 264 279 273 271 278 258 271 294 315 303 288 276 263 256 249 245 294 311 312 315 303 303
172 174 180 173 180 169 164 172 182 224 247 248 237 219 215 210 191 189 221 257 235 239 255 257 257 266 291 298 32 332 318 299 278 272 256 244 261 288 309 313 323 324 316
188 190 186 187 190 192 193 195 200 197 226 235 255 235 218 209 204 214 207 225 227 246 280 274 249 233 267 265 170 159 317 318 306 285 265 245 265 296 297 301 310 321 319
200 203 201 203 202 203 191 157 97 69 34 316 290 257 247 230 224 229 231 236 231 212 235 254 234 213 223 251 208 175 188 248 296 294 273 277 281 292 291 302 297 306 304
212 210 203 201 202 201 182 173 174 188 220 236 246 250 263 249 238 238 241 241 242 226 227 243 237 225 204 224 250 241 229 208 216 287 291 285 300 292 287 294 296 293 293
213 208 203 196 197 195 185 186 189 207 223 238 248 257 257 260 250 246 243 241 241 231 228 229 220 213 207 206 212 232 254 265 240 229 270 293 306 286 285 281 277 275 286
207 205 198 192 200 196 188 188 195 206 206 206 229 243 253 263 264 256 252 247 244 238 233 221 212 206 204 206 210 212 221 228 231 225 242 263 283 289 293 278 272 257 273
Height
1515 1517 1518 1519 1520 1521 1521 1522 1522 1522 1522 1522 1522 1522 1522 1522 1522 1522 1522 1522 1521 1521 1521 1521 1522 1521 1521 1521 1521 1520 1520 1520 1520 1520 1520 1520 1520 1520 1519 1519 1519 1519 1519
1514 1516 1518 1519 1519 1520 1521 1521 1521 1522 1522 1522 1522 1522 1522 1522 1522 1521 1521 1521 1521 1521 1521 1521 1521 1521 1521 1521 1520 1520 1520 1520 1519 1519 1519 1519 1520 1520 1519 1519 1519 1519 1519
1514 1516 1517 1518 1519 1520 1520 1521 1521 1521 1522 1522 1522 1522 1521 1521 1521 1521 1521 1521 1521 1521 1520 1521 1521 1520 1520 1520 1520 1520 1519 1519 1519 1519 1519 1519 1519 1519 1519 1519 1519 1519 1518
1513 1515 1516 1517 1518 1519 1520 1520 1521 1521 1521 1521 1521 1521 1521 1521 1521 1520 1520 1520 1520 1520 1520 1520 1520 1520 1520 1519 1519 1519 1519 1519 1518 1518 1518 1518 1518 1519 1519 1518 1518 1518 1518
1513 1515 1516 1517 1518 1518 1519 1520 1520 1520 1520 1520 1520 1520 1520 1520 1520 1520 1520 1519 1519 1519 1519 1519 1519 1519 1519 1519 1519 1518 1518 1518 1518 1517 1517 1518 1518 1518 1518 1518 1518 1518 1517
1512 1514 1515 1516 1517 1518 1518 1519 1519 1519 1519 1519 1519 1519 1519 1519 1519 1519 1519 1518 1518 1518 1518 1518 1518 1518 1518 1518 1518 1517 1517 1517 1517 1516 1517 1517 1517 1517 1517 1517 1517 1517 1517
1512 1513 1514 1515 1516 1517 1517 1518 1518 1518 1518 1518 1518 1518 1518 1518 1518 1518 1518 1517 1517 1517 1517 1517 1517 1517 1517 1517 1517 1516 1516 1516 1516 1515 1515 1516 1516 1516 1516 1516 1516 1516 1515
1511 1513 1514 1515 1515 1516 1516 1517 1517 1517 1517 1517 1517 1517 1517 1517 1517 1516 1516 1516 1516 1516 1516 1516 1516 1516 1516 1515 1515 1515 1515 1514 1514 1514 1514 1514 1515 1515 1515 1515 1515 1514 1514
1511 1512 1513 1514 1514 1515 1515 1515 1516 1516 1516 1516 1516 1516 1516 1515 1515 1515 1515 1515 1515 1515 1515 1515 1514 1514 1514 1514 1514 1513 1513 1513 1513 1513 1513 1513 1513 1513 1513 1513 1513 1513 1513
1510 1511 1511 1512 1513 1513 1514 1514 1514 1514 1514 1514 1514 1514 1514 1514 1514 1514 1514 1514 1513 1513 1513 1513 1513 1513 1512 1512 1512 1512 1511 1511 1511 1511 1511 1511 1511 1512 1512 1512 1512 1511 1511
1508 1509 1510 1511 1511 1512 1512 1512 1513 1513 1513 1513 1513 1512 1512 1512 1512 1512 1512 1512 1511 1511 1511 1511 1511 1511 1511 1510 1510 1510 1510 1509 1509 1509 1509 1509 1509 1509 1510 1510 1510 1509 1509
1505 1507 1508 1509 1509 1510 1510 1510 1510 1511 1511 1511 1511 1511 1510 1510 1510 1510 1510 1510 1510 1509 1509 1509 1509 1509 1509 1508 1508 1508 1507 1507 1507 1507 1507 1507 1507 1507 1507 1507 1507 1507 1507
1504 1505 1506 1507 1507 1508 1508 1508 1508 1508 1508 1508 1508 1508 1508 1508 1508 1508 1508 1508 1507 1507 1507 1507 1507 1506 1506 1506 1506 1505 1505 1505 1505 1505 1504 1504 1504 1504 1504 1504 1504 1504 1504
1502 1503 1504 1505 1505 1505 1506 1506 1505 1505 1505 1505 1506 1506 1506 1506 1506 1506 1505 1505 1505 1505 1505 1504 1504 1504 1504 1503 1503 1502 1502 1502 1502 1502 1502 1502 1501 1501 1502 1502 1502 1502 1501
1500 1501 1502 1502 1503 1503 1503 1503 1503 1502 1503 1503 1503 1503 1503 1503 1503 1503 1503 1503 1503 1502 1502 1502 1501 1501 1501 1501 1500 1500 1499 1499 1499 1499 1499 1499 1499 1498 1498 1499 1499 1499 1498
1498 1498 1499 1499 1500 1500 1500 1500 1500 1500 1500 1500 1500 1500 1500 1500 1500 1500 1500 1500 1500 1499 1499 1499 1499 1498 1498 1498 1497 1497 1496 1496 1496 1496 1496 1496 1495 1495 1495 1495 1495 1495 1495
1495 1496 1496 1497 1497 1497 1497 1497 1497 1497 1497 1497 1497 1497 1497 1497 1497 1497 1497 1497 1497 1496 1496 1496 1495 1495 1495 1494 1494 1494 1493 1493 1493 1493 1493 1492 1492 1492 1492 1491 1491 1491 1491
1492 1492 1493 1494 1494 1494 1494 1494 1494 1494 1494 1494 1494 1494 1494 1494 1494 1494 1494 1494 1493 1493 1493 1492 1492 1491 1491 1491 1490 1490 1490 1490 1489 1489 1489 1489 1489 1489 1488 1488 1487 1487 1487
1489 1489 1490 1490 1491 1491 1491 1491 1491 1491 1491 1491 1491 1491 1491 1491 1491 1491 1490 1490 1490 1490 1489 1489 1489 1488 1488 1487 1487 1487 1487 1486 1486 1486 1486 1486 1486 1485 1485 1484 1484 1483 1483
1486 1486 1487 1487 1487 1488 1488 1488 1488 1488 1488 1488 1488 1488 1487 1487 1487 1487 1487 1486 1486 1486 1486 1485 1485 1485 1484 1484 1484 1483 1483 1483 1482 1482 1482 1482 1482 1482 1482 1481 1480 1480 1480
1482 1483 1483 1483 1484 1484 1484 1484 1484 1484 1484 1484 1484 1484 1484 1484 1484 1484 1483 1483 1482 1482 1482 1482 1482 1481 1481 1481 1480 1480 1479 1479 1479 1479 1479 1479 1479 1479 1478 1478 1477 1477 1476
1478 1479 1479 1480 1480 1480 1480 1481 1481 1481 1480 1480 1481 1481 1481 1480 1480 1480 1479 1479 1478 1478 1478 1478 1478 1477 1477 1477 1477 1477 1476 1477 1475 1476 1476 1475 1475 1476 1475 1475 1474 1473 1473
1475 1475 1475 1476 1476 1477 1477 1478 1477 1477 1477 1477 1476 1476 1477 1477 1476 1476 1476 1475 1475 1474 1474 1474 1474 1473 1473 1474 1474 1475 1474 1473 1472 1472 1472 1472 1472 1472 1472 1471 1470 1470 1470
1471 1472 1472 1472 1473 1473 1474 1474 1473 1473 1472 1472 1473 1473 1473 1473 1472 1472 1472 1471 1471 1470 1470 1470 1470 1469 1470 1469 1470 1471 1472 1471 1471 1469 1469 1469 1469 1469 1468 1468 1467 1467 1466
1468 1468 1468 1469 1469 1469 1470 1470 1470 1470 1469 1470 1469 1469 1469 1469 1468 1468 1468 1467 1467 1466 1466 1466 1466 1466 1466 1466 1467 1467 1468 1468 1468 1467 1465 1465 1465 1465 1465 1464 1464 1463 1462
1465 1465 1465 1465 1465 1466 1466 1466 1466 1466 1466 1466 1465 1465 1465 1465 1464 1464 1464 1463 1463 1462 1462 1461 1462 1462 1462 1462 1463 1464 1464 1464 1464 1464 1462 1461 1461 1460 1460 1460 1460 1459 1458